Flag for Iceland

Past Weather in Egilsstaðir, Iceland — Yesterday and Last 2 Weeks

Now
45 °F

Partly cloudy.


Feels Like: 45 °F
Forecast: 60 / 38 °F
Wind: No wind

Location: Egilsstadir

Current Time: Jul 11, 2020 at 2:54:06 am

Latest Report: Jul 11, 2020 at 2:00 am


Visibility: N/A

Pressure: 29.89 "Hg

Humidity: 81%

Dew Point: 39 °F

Location of EgilsstaðirLocation

Past Weather in Egilsstaðir — Graph

°F

Egilsstaðir Temperature Yesterday

Maximum temperature yesterday: 54 °F (at 2:00 pm)
Minimum temperature yesterday: 46 °F (at 1:00 am)
Average temperature yesterday: 49 °F

High & Low Weather Summary for the Past Weeks

 TemperatureHumidityPressure
High61 °F (Jun 26, 11:00 am)100% (Jun 28, 3:00 am)30.07 "Hg (Jun 28, 3:00 am)
Low34 °F (Jul 3, 2:00 am)45% (Jul 8, 1:00 pm)29.53 "Hg (Jul 4, 4:00 pm)
Average47 °F76%29.83 "Hg
* Reported Jun 26 1:00 am — Jul 11 1:00 am, Egilsstaðir. Weather by CustomWeather, © 2020

Note: Actual official high and low records may vary slightly from our data, if they occured in-between our weather recording intervals... More about our weather records

Egilsstaðir Weather History for the Previous 24 Hours

Scroll right to see more
 ConditionsComfort  
Time TempWeatherWind HumidityBarometerVisibility
1:00 am
Sat, Jul 11
45 °FPartly cloudy.5 mph87%29.89 "HgN/A
12:00 am45 °FPartly cloudy.No wind87%29.92 "HgN/A
11:00 pm
Fri, Jul 10
46 °FBroken clouds.No wind82%29.92 "HgN/A
10:00 pm46 °FPartly sunny.6 mph82%29.92 "HgN/A
9:00 pm46 °FPartly sunny.9 mph82%29.92 "HgN/A
8:00 pm50 °FPartly sunny.7 mph71%29.92 "HgN/A
7:00 pm52 °FBroken clouds.6 mph62%29.92 "HgN/A
6:00 pm52 °FBroken clouds.9 mph62%29.92 "HgN/A
5:00 pm54 °FPartly sunny.9 mph63%29.92 "HgN/A
4:00 pm52 °FPartly sunny.12 mph62%29.92 "HgN/A
3:00 pm52 °FPartly sunny.12 mph62%29.92 "HgN/A
2:00 pm54 °FPartly sunny.16 mph58%29.92 "HgN/A
1:00 pm52 °FPartly sunny.10 mph58%29.95 "HgN/A
12:00 pm52 °FBroken clouds.16 mph54%29.95 "HgN/A
11:00 am50 °FScattered showers. Broken clouds.16 mph62%29.95 "HgN/A
10:00 am50 °FPartly sunny.6 mph58%29.95 "HgN/A
9:00 am48 °FPartly sunny.12 mph66%29.95 "HgN/A
8:00 am46 °FBroken clouds.17 mph71%29.95 "HgN/A
7:00 am46 °FPartly sunny.14 mph71%29.95 "HgN/A
6:00 am46 °FBroken clouds.21 mph71%29.95 "HgN/A
5:00 am46 °FBroken clouds.15 mph66%29.92 "HgN/A
4:00 am46 °FBroken clouds.12 mph66%29.92 "HgN/A
3:00 am46 °FBroken clouds.16 mph66%29.92 "HgN/A
2:00 am46 °FPartly cloudy.14 mph71%29.92 "HgN/A
Weather by CustomWeather, © 2020

See weather overview